FW7761 Weather Reports


time (UTC)temp
C
wind
direction
speed
KPH
gust
KPH
rain 1hr
cm
rain 24hr
cm
rain mn
cm
humidity
%
barometer
mb
20260503040519 12 103 6.4 12.9 0.00 0.00 0.00 94 1016.3
20260503035533 12 106 4.8 12.9 0.00 0.00 0.00 94 1016.3
20260503034549 12 101 6.4 14.5 0.00 0.00 0.00 94 1016.4
20260503033522 12 104 4.8 11.3 0.00 0.00 0.00 94 1016.4
20260503032535 12 110 8.0 14.5 0.00 0.00 0.00 94 1016.5
20260503031529 12 106 6.4 14.5 0.00 0.00 0.00 93 1016.6
20260503030523 12 103 6.4 14.5 0.00 0.00 0.00 92 1016.7
20260503025519 13 118 8.0 16.1 0.00 0.00 0.00 92 1016.8
20260503024533 13 110 8.0 14.5 0.00 0.00 0.00 91 1017.0
20260503023527 13 118 8.0 14.5 0.00 0.00 0.00 91 1016.7
20260503022541 13 102 8.0 17.7 0.00 0.00 0.00 90 1016.7
20260503021517 13 120 8.0 16.1 0.00 0.00 0.00 90 1016.7
20260503020530 13 102 9.7 16.1 0.00 0.00 0.00 91 1016.7
20260503015526 13 107 9.7 20.9 0.00 0.00 0.00 91 1016.8
20260503014520 13 110 8.0 14.5 0.00 0.00 0.00 91 1016.9
20260503013533 13 100 11.3 16.1 0.00 0.00 0.00 91 1016.9
20260503012529 13 101 11.3 17.7 0.00 0.00 0.00 91 1016.9
20260503011522 13 102 11.3 22.5 0.00 0.00 0.00 91 1016.8
20260503010517 13 113 9.7 17.7 0.00 0.00 0.00 91 1017.3
20260503005530 13 100 8.0 20.9 0.00 0.00 0.00 91 1017.4
20260503004545 13 101 9.7 20.9 0.00 0.00 0.00 91 1017.4
20260503003519 13 108 9.7 20.9 0.00 0.00 0.00 91 1017.5
20260503002533 13 110 8.0 14.5 0.00 0.00 0.00 91 1017.6
20260503001527 13 106 9.7 16.1 0.00 0.00 0.00 91 1017.7
20260503000520 13 117 9.7 22.5 0.00 0.00 0.00 91 1017.7
20260502235535 13 116 12.9 24.1 0.00 0.00 0.00 92 1018.1
20260502234530 13 112 11.3 22.5 0.00 0.00 0.00 92 1018.1
20260502233523 13 121 8.0 16.1 0.00 0.00 0.00 92 1018.1
20260502232516 13 106 9.7 16.1 0.00 0.00 0.00 92 1018.0
20260502231530 13 113 8.0 14.5 0.00 0.00 0.00 92 1018.3
20260502230547 13 112 4.8 11.3 0.00 0.00 0.00 92 1018.5
20260502225520 13 113 4.8 11.3 0.00 0.00 0.00 92 1018.4
20260502224533 13 103 6.4 12.9 0.00 0.00 0.00 91 1018.4
20260502223528 13 106 8.0 12.9 0.00 0.00 0.00 91 1018.3
20260502222523 13 103 6.4 12.9 0.00 0.00 0.00 91 1018.5
20260502221556 13 101 6.4 12.9 0.00 0.00 0.00 90 1018.3
20260502220551 13 102 11.3 17.7 0.00 0.00 0.00 90 1018.4
20260502215525 13 97 8.0 14.5 0.00 0.00 0.00 90 1018.6
20260502214519 14 85 6.4 16.1 0.00 0.00 0.00 89 1018.7
20260502213534 14 82 6.4 9.7 0.00 0.00 0.00 89 1018.5
20260502212528 14 93 9.7 14.5 0.00 0.00 0.00 89 1018.4
20260502211522 14 98 6.4 14.5 0.00 0.00 0.00 89 1018.5
20260502210518 14 107 9.7 16.1 0.00 0.00 0.00 90 1018.3
20260502205531 14 97 9.7 16.1 0.00 0.00 0.00 89 1018.2
20260502204549 14 104 9.7 17.7 0.00 0.00 0.00 89 1018.2
20260502203520 14 108 11.3 17.7 0.00 0.00 0.00 88 1018.0
20260502202535 15 111 12.9 24.1 0.00 0.00 0.00 87 1018.0
20260502201529 15 115 8.0 14.5 0.00 0.00 0.00 87 1018.0
20260502200524 15 119 9.7 12.9 0.00 0.00 0.00 87 1017.9
20260502195520 15 130 11.3 20.9 0.00 0.00 0.00 86 1017.9
20260502194532 15 121 11.3 17.7 0.00 0.00 0.00 86 1017.9
20260502193526 15 127 14.5 24.1 0.00 0.00 0.00 85 1017.8
20260502192520 15 136 6.4 14.5 0.00 0.00 0.00 84 1017.6
20260502191535 15 149 3.2 9.7 0.00 0.00 0.00 80 1017.4
20260502190530 16 153 6.4 14.5 0.00 0.00 0.00 79 1017.2
20260502185522 16 162 6.4 14.5 0.00 0.00 0.00 78 1017.4
20260502184516 16 147 8.0 14.5 0.00 0.00 0.00 76 1017.2
20260502183531 17 153 8.0 14.5 0.00 0.00 0.00 74 1017.2
20260502182526 17 149 8.0 17.7 0.00 0.00 0.00 74 1017.3
20260502181520 17 171 9.7 20.9 0.00 0.00 0.00 73 1017.4
20260502180534 17 158 9.7 24.1 0.00 0.00 0.00 73 1017.4
20260502163525 18 155 8.0 20.9 0.00 0.00 0.00 69 1017.6
20260502162520 18 154 11.3 22.5 0.00 0.00 0.00 69 1017.7
20260502161532 18 173 12.9 25.7 0.00 0.00 0.00 68 1017.7
20260502160526 18 154 9.7 17.7 0.00 0.00 0.00 69 1018.0
20260502151517 18 153 12.9 25.7 0.00 0.00 0.00 70 1018.4
20260502150552 18 150 11.3 25.7 0.00 0.00 0.00 69 1018.4
20260502130527 17 128 12.9 22.5 0.00 0.36 0.00 72 1020.1
20260502123528 18 146 12.9 24.1 0.00 0.36 0.00 70 1020.3
20260502122542 17 135 14.5 24.1 0.00 0.36 0.00 69 1020.2
20260502121516 17 133 14.5 27.4 0.00 0.36 0.00 69 1020.6
20260502120532 18 136 11.3 24.1 0.00 0.36 0.00 68 1020.5
20260502115525 17 119 12.9 27.4 0.00 0.36 0.00 69 1020.5
20260502114520 17 132 11.3 22.5 0.00 0.36 0.00 71 1020.5
20260502113554 17 129 12.9 24.1 0.00 0.36 0.00 72 1020.9
20260502112529 16 142 11.3 20.9 0.00 0.36 0.00 74 1021.1
20260502111524 16 143 8.0 14.5 0.00 0.36 0.00 75 1021.1
20260502110539 16 125 12.9 24.1 0.00 0.36 0.00 76 1021.3
20260502105534 16 107 11.3 17.7 0.00 0.36 0.00 75 1021.4
20260502104527 16 142 11.3 20.9 0.00 0.36 0.00 76 1021.4
20260502103521 16 114 11.3 20.9 0.00 0.36 0.00 76 1021.3
20260502102516 16 112 14.5 24.1 0.00 0.36 0.00 76 1021.4
20260502101530 16 102 11.3 22.5 0.00 0.36 0.00 77 1021.4
20260502100524 16 108 14.5 25.7 0.00 0.36 0.00 77 1021.5
20260502091517 15 99 12.9 20.9 0.00 0.36 0.00 81 1021.4
20260502090530 15 113 11.3 22.5 0.00 0.36 0.00 82 1021.6
20260502071528 13 113 9.7 17.7 0.00 0.36 0.00 86 1022.0
20260502070522 13 119 9.7 16.1 0.00 0.36 0.00 87 1021.9
20260502065517 13 125 9.7 16.1 0.00 0.36 0.00 87 1021.9
20260502064530 13 115 6.4 14.5 0.00 0.36 0.00 87 1021.8
20260502063545 13 103 9.7 16.1 0.00 0.36 0.00 87 1021.7
20260502062522 13 107 6.4 12.9 0.00 0.36 0.00 87 1021.5
20260502061614 13 93 9.7 14.5 0.00 0.36 0.00 88 1021.6
20260502060527 13 99 8.0 14.5 0.00 0.36 0.00 88 1021.7
20260502055522 13 104 9.7 14.5 0.00 0.36 0.00 88 1021.8
20260502054537 13 99 6.4 11.3 0.00 0.36 0.00 88 1021.8
20260502053532 13 102 8.0 14.5 0.00 0.36 0.00 88 1021.7
20260502052525 13 102 8.0 14.5 0.00 0.36 0.00 89 1021.6
20260502051519 13 104 9.7 17.7 0.00 0.36 0.00 89 1021.5
20260502050534 13 95 8.0 14.5 0.00 0.36 0.00 89 1021.5
20260502045527 13 101 9.7 16.1 0.00 0.36 0.00 89 1021.6
20260502044523 13 84 8.0 20.9 0.00 0.36 0.00 89 1021.6
20260502043517 12 108 11.3 17.7 0.00 0.36 0.00 89 1021.5
20260502042532 13 108 9.7 29.0 0.00 0.36 0.00 89 1021.9
20260502041547 12 122 9.7 20.9 0.00 0.36 0.00 89 1021.7